| time (UTC) | temp F | wind direction | speed knots | gust knots | rain 1hr in | rain 24hr in | rain mn in | humidity % | barometer mb |
| 20260507041514 | 38 | 103 | 0.0 | 1.7 | 0.00 | 0.00 | 0.00 | 51 | 1014.9 |
| 20260507040051 | 39 | 107 | 0.0 | 1.7 | 0.00 | 0.00 | 0.00 | 48 | 1015.0 |
| 20260507034518 | 41 | 102 | 0.0 | 0.9 | 0.00 | 0.00 | 0.00 | 45 | 1015.1 |
| 20260507033044 | 42 | 102 | 0.9 | 1.7 | 0.00 | 0.00 | 0.00 | 44 | 1015.2 |
| 20260507031519 | 44 | 104 | 0.0 | 0.9 | 0.00 | 0.00 | 0.00 | 41 | 1015.1 |
| 20260507030053 | 45 | 104 | 0.0 | 1.7 | 0.00 | 0.00 | 0.00 | 38 | 1015.1 |
| 20260507024514 | 47 | 104 | 0.9 | 1.7 | 0.00 | 0.00 | 0.00 | 35 | 1014.9 |
| 20260507023056 | 49 | 104 | 0.0 | 1.7 | 0.00 | 0.00 | 0.00 | 33 | 1014.9 |
| 20260507021522 | 51 | 109 | 0.0 | 1.7 | 0.00 | 0.00 | 0.00 | 29 | 1014.9 |
| 20260507020056 | 52 | 121 | 0.0 | 0.9 | 0.00 | 0.00 | 0.00 | 26 | 1014.9 |
| 20260507014543 | 53 | 121 | 0.0 | 0.0 | 0.00 | 0.00 | 0.00 | 25 | 1014.8 |
| 20260507013054 | 53 | 98 | 0.0 | 2.6 | 0.00 | 0.00 | 0.00 | 25 | 1014.9 |
| 20260507011536 | 53 | 39 | 0.0 | 1.7 | 0.00 | 0.00 | 0.00 | 24 | 1015.1 |
| 20260507010017 | 55 | 111 | 0.0 | 3.5 | 0.00 | 0.00 | 0.00 | 22 | 1015.2 |
| 20260507004600 | 55 | 107 | 1.7 | 3.5 | 0.00 | 0.00 | 0.00 | 21 | 1015.3 |
| 20260507003039 | 55 | 79 | 0.9 | 6.1 | 0.00 | 0.00 | 0.00 | 24 | 1015.5 |
| 20260507001540 | 56 | 144 | 2.6 | 10.4 | 0.00 | 0.00 | 0.00 | 22 | 1015.8 |
| 20260507000046 | 57 | 128 | 1.7 | 5.2 | 0.00 | 0.00 | 0.00 | 22 | 1015.8 |
| 20260506234541 | 56 | 28 | 1.7 | 10.4 | 0.00 | 0.00 | 0.00 | 23 | 1016.3 |
| 20260506233044 | 57 | 128 | 0.9 | 9.6 | 0.00 | 0.00 | 0.00 | 22 | 1016.2 |
| 20260506231544 | 57 | 89 | 1.7 | 5.2 | 0.00 | 0.00 | 0.00 | 22 | 1016.2 |
| 20260506230041 | 58 | 103 | 3.5 | 7.0 | 0.00 | 0.00 | 0.00 | 22 | 1016.3 |
| 20260506224537 | 58 | 86 | 2.6 | 10.4 | 0.00 | 0.00 | 0.00 | 22 | 1016.4 |
| 20260506223011 | 58 | 64 | 1.7 | 10.4 | 0.00 | 0.00 | 0.00 | 22 | 1016.7 |
| 20260506221542 | 58 | 180 | 1.7 | 7.0 | 0.00 | 0.00 | 0.00 | 23 | 1017.0 |
| 20260506220045 | 59 | 108 | 2.6 | 8.7 | 0.00 | 0.00 | 0.00 | 24 | 1017.3 |
| 20260506214559 | 59 | 86 | 1.7 | 7.8 | 0.00 | 0.00 | 0.00 | 25 | 1017.4 |
| 20260506213017 | 59 | 111 | 2.6 | 8.7 | 0.00 | 0.00 | 0.00 | 22 | 1017.9 |
| 20260506211552 | 58 | 111 | 2.6 | 8.7 | 0.00 | 0.00 | 0.00 | 23 | 1018.4 |
| 20260506210037 | 57 | 55 | 3.5 | 7.8 | 0.00 | 0.00 | 0.00 | 23 | 1018.5 |
| 20260506204604 | 57 | 111 | 2.6 | 8.7 | 0.00 | 0.00 | 0.00 | 24 | 1018.8 |
| 20260506203052 | 56 | 111 | 2.6 | 10.4 | 0.00 | 0.00 | 0.00 | 25 | 1019.0 |
| 20260506201523 | 56 | 62 | 1.7 | 7.8 | 0.00 | 0.00 | 0.00 | 25 | 1019.3 |
| 20260506200059 | 54 | 122 | 1.7 | 8.7 | 0.00 | 0.00 | 0.00 | 27 | 1019.6 |
| 20260506200007 | 54 | 165 | 1.7 | 8.7 | 0.00 | 0.00 | 0.00 | 28 | 1019.5 |
| 20260506194604 | 55 | 59 | 1.7 | 11.3 | 0.00 | 0.00 | 0.00 | 28 | 1019.9 |
| 20260506193059 | 53 | 65 | 0.9 | 9.6 | 0.00 | 0.00 | 0.00 | 28 | 1020.1 |
| 20260506191552 | 54 | 149 | 0.9 | 6.1 | 0.00 | 0.00 | 0.00 | 28 | 1020.2 |
| 20260506190022 | 53 | 90 | 1.7 | 6.1 | 0.00 | 0.00 | 0.00 | 31 | 1020.6 |
| 20260506184509 | 53 | 87 | 1.7 | 8.7 | 0.00 | 0.00 | 0.00 | 30 | 1020.7 |
| 20260506183038 | 53 | 107 | 1.7 | 6.1 | 0.00 | 0.00 | 0.00 | 28 | 1021.2 |
| 20260506181518 | 52 | 145 | 1.7 | 7.0 | 0.00 | 0.00 | 0.00 | 30 | 1021.3 |
| 20260506180024 | 51 | 99 | 2.6 | 7.8 | 0.00 | 0.00 | 0.00 | 32 | 1021.7 |
| 20260506174513 | 49 | 110 | 1.7 | 7.8 | 0.00 | 0.00 | 0.00 | 34 | 1021.7 |
| 20260506173034 | 49 | 165 | 2.6 | 7.8 | 0.00 | 0.00 | 0.00 | 33 | 1021.9 |
| 20260506171550 | 48 | 78 | 1.7 | 7.8 | 0.00 | 0.00 | 0.00 | 34 | 1022.4 |
| 20260506170038 | 48 | 104 | 3.5 | 8.7 | 0.00 | 0.00 | 0.00 | 36 | 1022.4 |
| 20260506164507 | 47 | 77 | 1.7 | 7.0 | 0.00 | 0.00 | 0.00 | 37 | 1022.7 |
| 20260506163044 | 47 | 114 | 0.9 | 5.2 | 0.00 | 0.00 | 0.00 | 38 | 1022.8 |
| 20260506161519 | 46 | 61 | 1.7 | 8.7 | 0.00 | 0.00 | 0.00 | 39 | 1022.9 |